Home > Time Zones > World Clock > Weather > India > Thane > Past weeks

Flag for India Weather past 2 weeks in Thane, Maharashtra, India

Now
79 °F

Light rain. More clouds than sun.


Feels Like: 83 °F
Forecast: 79 / 84 °F
Wind: 8 mph from Southwest

Location: Bombay / Santacruz

Current Time: Aug 31, 2014 at 3:54:00 PM

Latest Report: Aug 31, 2014 at 3:10 PM


Visibility: 1 mi

Pressure: 29.50 "Hg

Humidity: 100%

Dew point: 79 °F

Location of ThaneLocation

Historic Weather in Thane — Graph

°F

Thane temperature yesterday

Maximum temperature yesterday: 88 °F (at 12:40 PM)
Minimum temperature yesterday: 79 °F (at 3:40 AM)
Average temperature yesterday: 83 °F

Past Weeks' High & Low Weather Summary

 TemperatureHumidityPressure
High90 °F (Aug 23, 1:40 PM)100% (Aug 18, 9:40 AM)29.86 "Hg (Aug 18, 9:40 AM)
Low75 °F (Aug 27, 8:40 AM)66% (Aug 17, 12:40 PM)29.50 "Hg (Aug 31, 2:40 PM)
Average82 °F88%29.71 "Hg
* Reported Aug 16 2:40 PM — Aug 31 2:40 PM, Thane, Weather by CustomWeather, © 2014

Note: Actual official high and low records may vary slightly from our data, if they occured in-between our weather recording intervals... More about our weather records

Advertising

Thane weather history for previous 24 hours

 ConditionsComfort  
Time TempWeatherWind HumidityBarometerVisibility
2:40 PM
Aug 31
79 °FLight rain. More clouds than sun.7 mph100%29.50 "Hg1 mi
1:40 PM79 °FLight rain. More clouds than sun.7 mph100%29.53 "Hg1 mi
12:40 PM79 °FRain. More clouds than sun.3 mph100%29.56 "Hg1 mi
12:10 PM79 °FRain. More clouds than sun.3 mph100%29.56 "Hg1 mi
11:40 AM79 °FLight rain. More clouds than sun.7 mph100%29.59 "Hg1 mi
10:40 AM79 °FLight rain. More clouds than sun.6 mph100%29.59 "Hg1 mi
9:40 AM81 °FMore clouds than sun.6 mph94%29.59 "Hg1 mi
9:10 AM81 °FMore clouds than sun.6 mph100%29.59 "Hg1 mi
8:40 AM81 °FMore clouds than sun.5 mph94%29.59 "Hg1 mi
8:10 AM79 °FMore clouds than sun.3 mph100%29.56 "Hg1 mi
7:40 AM77 °FMore clouds than sun.5 mph100%29.56 "Hg1 mi
7:10 AM77 °FThundershowers. More clouds than sun.8 mph94%29.56 "Hg1 mi
6:40 AM77 °FThunderstorms. Mostly cloudy.6 mph100%29.56 "Hg1 mi
6:10 AM77 °FThunderstorms. Mostly cloudy.5 mph100%29.56 "Hg1 mi
5:40 AM77 °FThunderstorms. Mostly cloudy.3 mph100%29.56 "Hg1 mi
5:10 AM77 °FThunderstorms. Mostly cloudy.3 mph100%29.56 "Hg1 mi
3:40 AM79 °FThunderstorms. Mostly cloudy.6 mph94%29.53 "Hg1 mi
3:10 AM79 °FThunderstorms. Mostly cloudy.3 mph94%29.53 "Hg1 mi
2:40 AM79 °FThunderstorms. Mostly cloudy.10 mph94%29.56 "Hg1 mi
1:40 AM81 °FThunderstorms. Mostly cloudy.No wind94%29.56 "Hg1 mi
1:10 AM79 °FThunderstorms. Mostly cloudy.3 mph94%29.59 "Hg1 mi
12:10 AM81 °FThunderstorms. Mostly cloudy.6 mph94%29.59 "Hg1 mi
11:40 PM
Aug 30
79 °FThunderstorms. Mostly cloudy.3 mph94%29.62 "Hg1 mi
10:40 PM79 °FThunderstorms. Mostly cloudy.5 mph94%29.62 "Hg1 mi
9:40 PM84 °FThunderstorms. Partly cloudy.13 mph89%29.59 "Hg1 mi
9:10 PM84 °FThunderstorms. Partly cloudy.10 mph89%29.59 "Hg2 mi
8:40 PM84 °FPartly cloudy.13 mph84%29.59 "Hg2 mi
8:10 PM84 °FPartly cloudy.9 mph84%29.59 "Hg2 mi
7:40 PM84 °FPartly cloudy.13 mph84%29.59 "Hg2 mi
7:10 PM84 °FBroken clouds.12 mph84%29.56 "Hg2 mi
6:40 PM84 °FBroken clouds.9 mph84%29.56 "Hg2 mi
6:10 PM84 °FBroken clouds.9 mph84%29.56 "Hg2 mi
5:40 PM84 °FBroken clouds.12 mph84%29.56 "Hg2 mi
5:10 PM84 °FBroken clouds.8 mph84%29.56 "Hg2 mi
4:40 PM84 °FBroken clouds.14 mph84%29.53 "Hg2 mi
4:10 PM86 °FBroken clouds.14 mph84%29.53 "Hg2 mi
3:40 PM86 °FBroken clouds.13 mph84%29.56 "Hg2 mi
3:10 PM86 °FBroken clouds.10 mph79%29.56 "Hg2 mi
Weather by CustomWeather, © 2014

See weather overviewHow to use our weather pages